Location: ??????
(33.3472°N, 35.4764°E)
Time: 22:19:19
(UTC+00:00)

Cosmos 2263 Rocket - Pass Details

Date: 21 August 2019
Orbit: 823 x 849 km, 71.0° (Epoch: 21 September)

Event Time Altitude Azimuth Distance (km) Brightness Sun altitude
Exits shadow 01:52:48 20° 223° (SW) 1,870 3.4 -14.8°
Maximum altitude 01:56:39 53° 293° (WNW) 1,025 2.4 -14.1°
Drops below altitude 10° 02:02:13 10° 11° (N) 2,476 5.1 -13.1°
Sets 02:04:44 0° 16° (NNE) 3,416 6.0 -12.6°
